Location: Newark
(51.2625°N, 13.3939°E)
Time: 12:37:27
(UTC+00:00)

Transit 2A Rocket - Pass Details

Date: 24 November 2019
Orbit: 594 x 909 km, 66.7° (Epoch: 14 December)

Event Time Altitude Azimuth Distance (km) Brightness Sun altitude
Exits shadow 02:49:55 20° 90° (E) 1,424 7.0 -34.9°
Drops below altitude 10° 02:51:39 10° 105° (ESE) 1,997 7.8 -34.7°
Sets 02:54:10 0° 115° (ESE) 2,939 8.7 -34.3°
